Regional Weather Roundup
Issued by NWS

Home | Current Version | Previous Version | Graphics & Text | Print | Product List | Glossary On
Versions: 1 2 3 4 5 6 7 8 9 10 11 12 13 14 15 16 17 18 19 20 21 22 23 24 25 26 27 28 29 30 31 32 33 34 35 36 37 38 39 40 41 42 43 44 45 46 47 48 49 50
387
ASUS43 KLOT 281112
RWRIL

ILLINOIS REGIONAL WEATHER ROUNDUP
NATIONAL WEATHER SERVICE CHICAGO/ROMEOVILLE IL
500 AM CST TUE FEB 28 2017

NOTE: "FAIR" INDICATES FEW OR NO CLOUDS BELOW 12,000 FEET WITH NO
SIGNIFICANT WEATHER AND/OR OBSTRUCTIONS TO VISIBILITY.

* THESE STATIONS ARE NOT UNDER NWS QUALITY CONTROL. THEY ALSO MAY NOT
  REPORT WEATHER SUCH AS PRECIPITATION OR FOG.

ILZ001-002-007-009-015-016-024-281200-
NORTHWEST ILLINOIS

CITY           SKY/WX    TMP DP  RH WIND       PRES   REMARKS
MOLINE         PTCLDY    51  47  86 S10       29.76F
STERLING*      CLOUDY    49  47  93 S9G18     29.79F
$$

ILZ003-004-008-010-011-017-018-281200-
NORTH CENTRAL ILLINOIS

CITY           SKY/WX    TMP DP  RH WIND       PRES   REMARKS
ROCKFORD       CLOUDY    49  45  86 S12       29.83F
FREEPORT*      CLOUDY    46  45  93 S13       29.80F
ROCHELLE*      LGT RAIN  48  46  93 S14       29.83F
DE KALB*       CLOUDY    47  45  93 S14       29.85S
PERU*          CLOUDY    48  45  89 S9        29.86R
$$

ILZ005-006-012>014-019>023-281200-
NORTHEAST ILLINOIS

CITY           SKY/WX    TMP DP  RH WIND       PRES   REMARKS
CHICAGO-OHARE  CLOUDY    50  45  83 S16G25    29.85S
CHICAGO-MIDWAY CLOUDY    50  44  80 S16G23    29.87F
AURORA         CLOUDY    49  45  86 S16       29.85S
LANSING*       CLOUDY    47  46  96 S12G17    29.89F
JOLIET*        CLOUDY    50  47  88 S12G18    29.87S
WAUKEGAN       CLOUDY    40  39  97 SE3       29.86S FOG
DUPAGE AIRPORT CLOUDY    49  44  83 S14       29.85S
KANKAKEE*      CLOUDY    47  44  89 SE14      29.90F
WHEELING       CLOUDY    49  44  83 S12       29.87S
MORRIS*        CLOUDY    48  45  89 S14       29.86R
ROMEOVILLE*    CLOUDY    48  47  98 S17       29.87R
NORTHERLY ISL    N/A     48  43  82 S9          N/A
$$

LMZ740>746-281200-
SOUTHERN LAKE MICHIGAN

STATION/POSITION SKY/WX   TEMP    WIND        PRES    VSBY  WAVE
                          AIR SEA DIR/SP/G                  HT/PER
                          (F)     (DEG/KT/KT) (MB)    (MI)  (FT/S)
HARRISON CRIB              45     170/ 19/ 21   N/A
BURNHAM HARBOR             48     180/  9/ 17   N/A
CALUMET HARBOR             48     160/ 15/ 21 1011.1F
BURNS HARBOR               48     170/ 14/ 20 1012.9F
MICHIGAN CITY              47     140/ 16/ 20   N/A
$$

ILZ025>027-034>036-040-047-049-050-058-095>099-281200-
WEST-CENTRAL ILLINOIS

CITY           SKY/WX    TMP DP  RH WIND       PRES   REMARKS
QUINCY         CLOUDY    56  51  84 S14G23    29.76F
GALESBURG*     CLOUDY    50  48  92 SE7       29.78F
MACOMB*        CLEAR     50  48  92 S8        29.80F
JACKSONVILLE*  CLEAR     53  50  89 S13       29.82F
PITTSFIELD*    MOCLDY    55  51  88 S9        29.81F
$$

ILZ028>032-037-038-041>044-048-051>054-059>061-281200-
CENTRAL ILLINOIS

CITY           SKY/WX    TMP DP  RH WIND       PRES   REMARKS
PONTIAC        CLOUDY    50  49  97 S14       29.88S
BLOOMINGTON    CLOUDY    50  48  93 S16       29.88F
DECATUR        MOCLDY    50  47  89 S13       29.89F
PEORIA         CLOUDY    52  50  93 S13       29.83F
LACON*         CLOUDY    50  48  93 S7        29.83S
LINCOLN*       CLOUDY    52  51  95 S12       29.86F
SPRINGFIELD    CLOUDY    54  50  86 S14       29.85F
TAYLORVILLE    CLEAR     50  49  95 S10       29.88F
$$

ILZ033-039-045-046-055>057-062-063-281200-
EAST-CENTRAL ILLINOIS

CITY           SKY/WX    TMP DP  RH WIND       PRES   REMARKS
CHAMPAIGN      CLOUDY    51  47  86 S20       29.91S
RANTOUL*       CLOUDY    51  49  93 S12       29.92S
MATTOON        PTCLDY    49  49 100 S14       29.91F
PARIS*         CLOUDY    49  48  97 S15       29.95F
$$

ILZ079-100>102-281200-
SOUTHWEST ILLINOIS

CITY           SKY/WX    TMP DP  RH WIND       PRES   REMARKS
ALTON          CLOUDY    54  51  89 S12       29.88F
BELLEVILLE     CLOUDY    54  54 100 VRB6      29.88F
CAHOKIA*       CLOUDY    55  51  86 S8        29.88S
SPARTA*        CLOUDY    54  51  90 S14       29.92F THUNDER
$$

ILZ064>066-069>071-074>076-080>082-084>086-088>090-092>094-281200-
SOUTH-CENTRAL ILLINOIS

CITY           SKY/WX    TMP DP  RH WIND       PRES   REMARKS
CARBONDALE     CLOUDY    54  52  93 S9        29.95S
CAIRO*         CLOUDY    55  53  95 S6        29.97S
EFFINGHAM*     CLOUDY    50  50 100 SE8       29.95F
MARION         CLOUDY    55  55 100 S13       29.96S
MT. VERNON     CLOUDY    54  52  94 S8        29.94F
CENTRALIA*     CLOUDY    54  52  95 S8        29.92S THUNDER
SALEM*         CLOUDY    54  51  90 S5        29.93F THUNDER
METROPOLIS*    TSTM      55  54  96 CALM      29.99S
$$

ILZ067-068-072-073-078-083-087-091-281200-
SOUTHEAST ILLINOIS

CITY           SKY/WX    TMP DP  RH WIND       PRES   REMARKS
LAWRENCEVILLE  TSTM      50  50 100 SE5       30.00R FOG
FLORA*         CLOUDY    52  51  95 SE5       29.96F THUNDER
FAIRFIELD*     TSTM      52  51  95 SE6       29.95S
HARRISBURG*    CLOUDY    55  51  88 S8        29.97F THUNDER
ROBINSON*      CLOUDY    49  48  95 S6        30.01R
CARMI*         CLOUDY    51  50  95 SE9       29.95F
$$

ABBREVIATIONS USED IN REMARKS
   TC - TEMPERATURE IN CELSIUS
  WCI - WIND CHILL INDEX
   HX - HEAT INDEX
  VSB - VISIBILITY
$$





USA.gov is the U.S. government's official web portal to all federal, state and local government web resources and services.